,,PA_Meas_PMT16A,,PR_Meas_QMR101_102,,RH_Meas_QMH101,,SR_Meas_QMS101,,TA_Meas_QMH101,,GenWind,,GenWind,
time,status,PA,status,PR,status,RH,status,SR,status,TA,status,DirAvg,status,SpdAvg,
2012-06-28, 00:00:04,VALID,918.753,VALID,0,VALID,96.886,VALID,0,VALID,18.3408,VALID,134,VALID,1.45703,
2012-06-28, 00:01:04,VALID,918.777,VALID,0,VALID,96.9165,VALID,0,VALID,18.3394,VALID,124,VALID,1.14375,
2012-06-28, 00:02:04,VALID,918.773,VALID,0,VALID,96.9698,VALID,0,VALID,18.3603,VALID,133,VALID,0,
2012-06-28, 00:03:04,VALID,918.725,VALID,0,VALID,96.9851,VALID,0,VALID,18.3603,VALID,137,VALID,0,
2012-06-28, 00:04:04,VALID,918.732,VALID,0,VALID,96.9622,VALID,0,VALID,18.3798,VALID,156,VALID,0,
2012-06-28, 00:05:04,VALID,918.742,VALID,0,VALID,96.9546,VALID,0,VALID,18.3798,VALID,140,VALID,0,
2012-06-28, 00:06:04,VALID,918.717,VALID,0,VALID,96.947,VALID,0,VALID,18.3603,VALID,128,VALID,0,
2012-06-28, 00:07:04,VALID,918.701,VALID,0,VALID,96.9089,VALID,0,VALID,18.3603,VALID,164,VALID,0,
2012-06-28, 00:08:04,VALID,918.683,VALID,0,VALID,96.8555,VALID,0,VALID,18.3408,VALID,148,VALID,0,
2012-06-28, 00:09:04,VALID,918.683,VALID,0,VALID,96.8174,VALID,0,VALID,18.3213,VALID,126,VALID,0,
2012-06-28, 00:10:04,VALID,918.666,VALID,0,VALID,96.764,VALID,0,VALID,18.3018,VALID,135,VALID,0,
2012-06-28, 00:11:04,VALID,918.661,VALID,0,VALID,96.7411,VALID,0,VALID,18.3213,VALID,135,VALID,0,
2012-06-28, 00:12:04,VALID,918.65,VALID,0,VALID,96.703,VALID,0,VALID,18.3004,VALID,135,VALID,0,
2012-06-28, 00:13:04,VALID,918.625,VALID,0,VALID,96.6878,VALID,0,VALID,18.3018,VALID,135,VALID,0,
2012-06-28, 00:14:04,VALID,918.638,VALID,0,VALID,96.6573,VALID,0,VALID,18.2823,VALID,155,VALID,0,
2012-06-28, 00:15:04,VALID,918.615,VALID,0,VALID,96.6115,VALID,0,VALID,18.2837,VALID,162,VALID,0,
2012-06-28, 00:16:04,VALID,918.599,VALID,0,VALID,96.5506,VALID,0,VALID,18.2823,VALID,162,VALID,0,
2012-06-28, 00:17:04,VALID,918.617,VALID,0,VALID,96.5353,VALID,0,VALID,18.3032,VALID,162,VALID,0,
2012-06-28, 00:18:04,VALID,918.608,VALID,0,VALID,96.4819,VALID,0,VALID,18.2628,VALID,162,VALID,0,
2012-06-28, 00:19:04,VALID,918.607,VALID,0,VALID,96.4667,VALID,0,VALID,18.2823,VALID,162,VALID,0,
2012-06-28, 00:20:04,VALID,918.606,VALID,0,VALID,96.421,VALID,0,VALID,18.2823,VALID,162,VALID,0,
2012-06-28, 00:21:04,VALID,918.582,VALID,0,VALID,96.36,VALID,0,VALID,18.2628,VALID,162,VALID,0,
2012-06-28, 00:22:04,VALID,918.529,VALID,0,VALID,96.3066,VALID,0,VALID,18.2628,VALID,161,VALID,0,
2012-06-28, 00:23:04,VALID,918.543,VALID,0,VALID,96.2456,VALID,0,VALID,18.2615,VALID,137,VALID,0,
2012-06-28, 00:24:04,VALID,918.543,VALID,0,VALID,96.1389,VALID,0,VALID,18.2823,VALID,137,VALID,0,
2012-06-28, 00:25:04,VALID,918.505,VALID,0,VALID,96.0245,VALID,0,VALID,18.2809,VALID,149,VALID,0,
2012-06-28, 00:26:04,VALID,918.493,VALID,0,VALID,95.9636,VALID,0,VALID,18.2823,VALID,149,VALID,0,
2012-06-28, 00:27:04,VALID,918.464,VALID,0,VALID,95.9178,VALID,0,VALID,18.3018,VALID,163,VALID,0,
2012-06-28, 00:28:04,VALID,918.451,VALID,0,VALID,95.7577,VALID,0,VALID,18.2823,VALID,162,VALID,0,
2012-06-28, 00:29:04,VALID,918.439,VALID,0,VALID,95.7349,VALID,0,VALID,18.3018,VALID,162,VALID,0,
2012-06-28, 00:30:04,VALID,918.398,VALID,0,VALID,95.773,VALID,0,VALID,18.3213,VALID,162,VALID,0,
2012-06-28, 00:31:04,VALID,918.423,VALID,0,VALID,95.7882,VALID,0,VALID,18.3408,VALID,162,VALID,0,
2012-06-28, 00:32:04,VALID,918.403,VALID,0,VALID,95.8645,VALID,0,VALID,18.3213,VALID,162,VALID,0,
2012-06-28, 00:33:04,VALID,918.397,VALID,0,VALID,95.8416,VALID,0,VALID,18.3018,VALID,162,VALID,0,
2012-06-28, 00:34:04,VALID,918.392,VALID,0,VALID,95.895,VALID,0,VALID,18.3018,VALID,162,VALID,0,
2012-06-28, 00:35:04,VALID,918.401,VALID,0,VALID,95.9026,VALID,0,VALID,18.3032,VALID,162,VALID,0,
2012-06-28, 00:36:04,VALID,918.446,VALID,0,VALID,95.8873,VALID,0,VALID,18.2628,VALID,162,VALID,0,
2012-06-28, 00:37:04,VALID,918.449,VALID,0,VALID,95.9407,VALID,0,VALID,18.2628,VALID,162,VALID,0,
2012-06-28, 00:38:04,VALID,918.473,VALID,0,VALID,95.9483,VALID,0,VALID,18.2823,VALID,162,VALID,0,
2012-06-28, 00:39:04,VALID,918.501,VALID,0,VALID,95.9026,VALID,0,VALID,18.2628,VALID,129,VALID,0,
2012-06-28, 00:40:04,VALID,918.522,VALID,0,VALID,95.8187,VALID,0.107441,VALID,18.242,VALID,115,VALID,0,
2012-06-28, 00:41:04,VALID,918.526,VALID,0,VALID,95.8111,VALID,0.107441,VALID,18.2225,VALID,115,VALID,0,
2012-06-28, 00:42:04,VALID,918.544,VALID,0,VALID,95.7577,VALID,0.107441,VALID,18.203,VALID,115,VALID,0,
2012-06-28, 00:43:04,VALID,918.558,VALID,0,VALID,95.7654,VALID,0.107441,VALID,18.164,VALID,115,VALID,0,
2012-06-28, 00:44:04,VALID,918.54,VALID,0,VALID,95.834,VALID,0.107441,VALID,18.125,VALID,115,VALID,0,
2012-06-28, 00:45:04,VALID,918.515,VALID,0,VALID,95.8645,VALID,0.107441,VALID,18.125,VALID,115,VALID,0,
2012-06-28, 00:46:04,VALID,918.505,VALID,0,VALID,95.9178,VALID,0.107441,VALID,18.0846,VALID,116,VALID,0,
2012-06-28, 00:47:04,VALID,918.517,VALID,0,VALID,95.9788,VALID,0.107441,VALID,18.1055,VALID,115,VALID,0,
2012-06-28, 00:48:04,VALID,918.494,VALID,0,VALID,96.0322,VALID,0.107441,VALID,18.086,VALID,126,VALID,0,
2012-06-28, 00:49:04,VALID,918.464,VALID,0,VALID,96.0932,VALID,0.107441,VALID,18.086,VALID,140,VALID,0,
2012-06-28, 00:50:04,VALID,918.455,VALID,0,VALID,96.177,VALID,0.107441,VALID,18.1055,VALID,140,VALID,0,
2012-06-28, 00:51:04,VALID,918.445,VALID,0,VALID,96.2304,VALID,0.107441,VALID,18.1055,VALID,140,VALID,0,
2012-06-28, 00:52:04,VALID,918.416,VALID,0,VALID,96.3142,VALID,0.107441,VALID,18.1055,VALID,140,VALID,0,
2012-06-28, 00:53:04,VALID,918.39,VALID,0,VALID,96.3676,VALID,0.107441,VALID,18.1055,VALID,140,VALID,0,
2012-06-28, 00:54:04,VALID,918.384,VALID,0,VALID,96.3981,VALID,0.107441,VALID,18.125,VALID,140,VALID,0,
2012-06-28, 00:55:04,VALID,918.361,VALID,0,VALID,96.4591,VALID,0,VALID,18.1459,VALID,140,VALID,0,
2012-06-28, 00:56:04,VALID,918.303,VALID,0,VALID,96.4896,VALID,0,VALID,18.1459,VALID,140,VALID,0,
2012-06-28, 00:57:04,VALID,918.304,VALID,0,VALID,96.5124,VALID,0,VALID,18.1264,VALID,140,VALID,0,
2012-06-28, 00:58:04,VALID,918.248,VALID,0,VALID,96.4438,VALID,0,VALID,18.1264,VALID,140,VALID,0,
2012-06-28, 00:59:04,VALID,918.233,VALID,0,VALID,96.4286,VALID,0,VALID,18.1069,VALID,140,VALID,0,
2012-06-28, 01:00:04,VALID,918.185,VALID,0,VALID,96.4515,VALID,0,VALID,18.1069,VALID,140,VALID,0,
2012-06-28, 01:01:04,VALID,918.19,VALID,0,VALID,96.3829,VALID,0,VALID,18.1069,VALID,121,VALID,0,
2012-06-28, 01:02:04,VALID,918.198,VALID,0,VALID,96.3676,VALID,0,VALID,18.0874,VALID,121,VALID,0,
2012-06-28, 01:03:04,VALID,918.153,VALID,0,VALID,96.3219,VALID,0,VALID,18.1069,VALID,121,VALID,0,
2012-06-28, 01:04:04,VALID,918.168,VALID,0,VALID,96.2609,VALID,0,VALID,18.1069,VALID,121,VALID,0,
2012-06-28, 01:05:04,VALID,918.159,VALID,0,VALID,96.2228,VALID,0,VALID,18.1069,VALID,121,VALID,0,
2012-06-28, 01:06:04,VALID,918.195,VALID,0,VALID,96.1846,VALID,0,VALID,18.0874,VALID,121,VALID,0,
2012-06-28, 01:07:04,VALID,918.175,VALID,0,VALID,96.177,VALID,0,VALID,18.0484,VALID,121,VALID,0,
2012-06-28, 01:08:04,VALID,918.164,VALID,0,VALID,96.2228,VALID,0,VALID,18.0275,VALID,95,VALID,0,
2012-06-28, 01:09:04,VALID,918.164,VALID,0,VALID,96.2533,VALID,0,VALID,18.0289,VALID,95,VALID,0,
2012-06-28, 01:10:04,VALID,918.157,VALID,0,VALID,96.2685,VALID,0,VALID,18.0289,VALID,94,VALID,0,
2012-06-28, 01:11:04,VALID,918.118,VALID,0,VALID,96.3371,VALID,0,VALID,18.0289,VALID,94,VALID,0,
2012-06-28, 01:12:04,VALID,918.122,VALID,0,VALID,96.4515,VALID,0,VALID,18.0289,VALID,94,VALID,0,
2012-06-28, 01:13:04,VALID,918.084,VALID,0,VALID,96.5124,VALID,0,VALID,18.0289,VALID,94,VALID,0,
2012-06-28, 01:14:04,VALID,918.123,VALID,0,VALID,96.5963,VALID,0,VALID,18.0693,VALID,94,VALID,0,
2012-06-28, 01:15:04,VALID,918.137,VALID,0,VALID,96.6344,VALID,0,VALID,18.0679,VALID,94,VALID,0,
2012-06-28, 01:16:04,VALID,918.141,VALID,0,VALID,96.642,VALID,0,VALID,18.0874,VALID,94,VALID,0,
2012-06-28, 01:17:04,VALID,918.147,VALID,0,VALID,96.6649,VALID,0,VALID,18.0874,VALID,94,VALID,0,
2012-06-28, 01:18:04,VALID,918.125,VALID,0,VALID,96.6344,VALID,0,VALID,18.0874,VALID,94,VALID,0,
2012-06-28, 01:19:04,VALID,918.156,VALID,0,VALID,96.5582,VALID,0,VALID,18.0679,VALID,94,VALID,0,
2012-06-28, 01:20:04,VALID,918.156,VALID,0,VALID,96.6039,VALID,0,VALID,18.0679,VALID,94,VALID,0,
2012-06-28, 01:21:04,VALID,918.109,VALID,0,VALID,96.6497,VALID,0,VALID,18.0679,VALID,94,VALID,0,
2012-06-28, 01:22:04,VALID,918.074,VALID,0,VALID,96.5811,VALID,0,VALID,18.0289,VALID,94,VALID,0,
2012-06-28, 01:23:04,VALID,918.065,VALID,0,VALID,96.5429,VALID,0,VALID,17.9899,VALID,94,VALID,0,
2012-06-28, 01:24:04,VALID,918.025,VALID,0,VALID,96.5734,VALID,0,VALID,17.9509,VALID,94,VALID,0,
2012-06-28, 01:25:04,VALID,918.024,VALID,0,VALID,96.6802,VALID,0,VALID,17.9704,VALID,94,VALID,0,
2012-06-28, 01:26:04,VALID,917.969,VALID,0,VALID,96.7564,VALID,0,VALID,18.0108,VALID,94,VALID,0,
2012-06-28, 01:27:04,VALID,917.987,VALID,0,VALID,96.8174,VALID,0,VALID,18.0303,VALID,94,VALID,0,
2012-06-28, 01:28:04,VALID,917.967,VALID,0,VALID,96.8631,VALID,0,VALID,18.0289,VALID,94,VALID,0,
2012-06-28, 01:29:04,VALID,917.955,VALID,0,VALID,96.8936,VALID,0,VALID,18.0498,VALID,94,VALID,0,
2012-06-28, 01:30:04,VALID,917.988,VALID,0,VALID,96.9089,VALID,0,VALID,18.0289,VALID,94,VALID,0,
2012-06-28, 01:31:04,VALID,917.976,VALID,0,VALID,96.9165,VALID,0,VALID,18.0289,VALID,94,VALID,0,
2012-06-28, 01:32:04,VALID,918.013,VALID,0,VALID,96.9317,VALID,0,VALID,18.0289,VALID,94,VALID,0,
2012-06-28, 01:33:04,VALID,918.015,VALID,0,VALID,96.947,VALID,0,VALID,18.0094,VALID,94,VALID,0,
2012-06-28, 01:34:04,VALID,918.036,VALID,0,VALID,96.9622,VALID,0,VALID,18.0094,VALID,94,VALID,0,
2012-06-28, 01:35:04,VALID,918.05,VALID,0,VALID,96.9927,VALID,0,VALID,18.0303,VALID,94,VALID,0,
2012-06-28, 01:36:04,VALID,918.075,VALID,0,VALID,97.008,VALID,0,VALID,17.9913,VALID,94,VALID,0,
2012-06-28, 01:37:04,VALID,918.105,VALID,0,VALID,97.0003,VALID,0,VALID,17.9913,VALID,94,VALID,0,
2012-06-28, 01:38:04,VALID,918.092,VALID,0,VALID,96.9165,VALID,0,VALID,17.9314,VALID,94,VALID,0,
2012-06-28, 01:39:04,VALID,918.067,VALID,0,VALID,97.0385,VALID,0,VALID,17.8925,VALID,94,VALID,0,
2012-06-28, 01:40:04,VALID,918.045,VALID,0,VALID,96.9698,VALID,0,VALID,17.8925,VALID,94,VALID,0,
2012-06-28, 01:41:04,VALID,918.046,VALID,0,VALID,96.886,VALID,0,VALID,17.834,VALID,94,VALID,0,
2012-06-28, 01:42:04,VALID,918.023,VALID,0,VALID,96.9317,VALID,0,VALID,17.8145,VALID,94,VALID,0,
2012-06-28, 01:43:04,VALID,918.002,VALID,0,VALID,96.9927,VALID,0,VALID,17.8353,VALID,94,VALID,0,
2012-06-28, 01:44:04,VALID,917.962,VALID,0,VALID,96.9851,VALID,0,VALID,17.834,VALID,94,VALID,0,
2012-06-28, 01:45:04,VALID,917.982,VALID,0,VALID,96.9012,VALID,0,VALID,17.8548,VALID,19,VALID,0,
2012-06-28, 01:46:04,VALID,917.941,VALID,0,VALID,96.8555,VALID,0,VALID,17.873,VALID,15,VALID,0.00664063,
2012-06-28, 01:47:04,VALID,917.932,VALID,0,VALID,96.8479,VALID,0,VALID,17.9119,VALID,19,VALID,0,
2012-06-28, 01:48:04,VALID,917.967,VALID,0,VALID,96.764,VALID,0,VALID,17.9718,VALID,2,VALID,0,
2012-06-28, 01:49:04,VALID,917.919,VALID,0,VALID,96.7335,VALID,0,VALID,17.9899,VALID,2,VALID,0,
2012-06-28, 01:50:04,VALID,917.937,VALID,0,VALID,96.703,VALID,0,VALID,18.0303,VALID,2,VALID,0,
2012-06-28, 01:51:04,VALID,917.916,VALID,0,VALID,96.7107,VALID,0,VALID,18.0484,VALID,2,VALID,0,
2012-06-28, 01:52:04,VALID,917.896,VALID,0,VALID,96.6954,VALID,0,VALID,18.0693,VALID,2,VALID,0,
2012-06-28, 01:53:04,VALID,917.878,VALID,0,VALID,96.6725,VALID,0,VALID,18.0693,VALID,2,VALID,0,
2012-06-28, 01:54:04,VALID,917.882,VALID,0,VALID,96.6725,VALID,0,VALID,18.0888,VALID,2,VALID,0,
2012-06-28, 01:55:04,VALID,917.871,VALID,0,VALID,96.6497,VALID,0,VALID,18.0484,VALID,2,VALID,0,
2012-06-28, 01:56:04,VALID,917.862,VALID,0,VALID,96.6268,VALID,0,VALID,18.0888,VALID,2,VALID,0,
2012-06-28, 01:57:04,VALID,917.844,VALID,0,VALID,96.6344,VALID,0,VALID,18.0679,VALID,2,VALID,0,
2012-06-28, 01:58:04,VALID,917.837,VALID,0,VALID,96.6192,VALID,0,VALID,18.0874,VALID,2,VALID,0,
2012-06-28, 01:59:04,VALID,917.812,VALID,0,VALID,96.5887,VALID,0,VALID,18.1069,VALID,2,VALID,0,
2012-06-28, 02:00:04,VALID,917.834,VALID,0,VALID,96.6115,VALID,0,VALID,18.1264,VALID,2,VALID,0,
2012-06-28, 02:01:04,VALID,917.818,VALID,0,VALID,96.642,VALID,0,VALID,18.1667,VALID,2,VALID,0,
2012-06-28, 02:02:04,VALID,917.815,VALID,0,VALID,96.5277,VALID,0,VALID,18.1472,VALID,2,VALID,0,
2012-06-28, 02:03:04,VALID,917.817,VALID,0,VALID,96.4972,VALID,0,VALID,18.1472,VALID,2,VALID,0,
2012-06-28, 02:04:04,VALID,917.826,VALID,0,VALID,96.4667,VALID,0,VALID,18.1459,VALID,2,VALID,0,
2012-06-28, 02:05:04,VALID,917.8,VALID,0,VALID,96.421,VALID,0,VALID,18.1459,VALID,2,VALID,0,
2012-06-28, 02:06:04,VALID,917.822,VALID,0,VALID,96.4515,VALID,0,VALID,18.1862,VALID,2,VALID,0,
2012-06-28, 02:07:04,VALID,917.797,VALID,0,VALID,96.4819,VALID,0,VALID,18.1862,VALID,2,VALID,0,
2012-06-28, 02:08:04,VALID,917.793,VALID,0,VALID,96.4819,VALID,0,VALID,18.1849,VALID,2,VALID,0,
2012-06-28, 02:09:04,VALID,917.791,VALID,0,VALID,96.4133,VALID,0,VALID,18.1849,VALID,2,VALID,0,
2012-06-28, 02:10:04,VALID,917.791,VALID,0,VALID,96.3524,VALID,0,VALID,18.2044,VALID,2,VALID,0,
2012-06-28, 02:11:04,VALID,917.816,VALID,0,VALID,96.2837,VALID,0,VALID,18.2433,VALID,2,VALID,0,
2012-06-28, 02:12:04,VALID,917.822,VALID,0,VALID,96.1846,VALID,0,VALID,18.2823,VALID,2,VALID,0,
2012-06-28, 02:13:04,VALID,917.81,VALID,0,VALID,96.0322,VALID,0,VALID,18.3422,VALID,3,VALID,0,
2012-06-28, 02:14:04,VALID,917.824,VALID,0,VALID,95.773,VALID,0,VALID,18.3227,VALID,17,VALID,0,
2012-06-28, 02:15:04,VALID,917.85,VALID,0,VALID,95.5138,VALID,0,VALID,18.3617,VALID,360,VALID,0,
2012-06-28, 02:16:04,VALID,917.839,VALID,0,VALID,95.3003,VALID,0,VALID,18.4007,VALID,360,VALID,0,
2012-06-28, 02:17:04,VALID,917.865,VALID,0,VALID,95.003,VALID,0,VALID,18.3798,VALID,360,VALID,0,
2012-06-28, 02:18:04,VALID,917.848,VALID,0,VALID,94.7362,VALID,0,VALID,18.4188,VALID,360,VALID,0,
2012-06-28, 02:19:04,VALID,917.867,VALID,0,VALID,94.5456,VALID,0,VALID,18.4397,VALID,360,VALID,0,
2012-06-28, 02:20:04,VALID,917.847,VALID,0,VALID,94.4541,VALID,0,VALID,18.4188,VALID,360,VALID,0,
2012-06-28, 02:21:04,VALID,917.852,VALID,0,VALID,94.538,VALID,0,VALID,18.4188,VALID,360,VALID,0,
2012-06-28, 02:22:04,VALID,917.847,VALID,0,VALID,94.599,VALID,0,VALID,18.4202,VALID,360,VALID,0,
2012-06-28, 02:23:04,VALID,917.84,VALID,0,VALID,94.5532,VALID,0,VALID,18.3993,VALID,360,VALID,0,
2012-06-28, 02:24:04,VALID,917.833,VALID,0,VALID,94.4617,VALID,0,VALID,18.3993,VALID,360,VALID,0,
2012-06-28, 02:25:04,VALID,917.871,VALID,0,VALID,94.4008,VALID,0,VALID,18.3993,VALID,360,VALID,0,
2012-06-28, 02:26:04,VALID,917.853,VALID,0,VALID,94.3169,VALID,0,VALID,18.3993,VALID,360,VALID,0,
2012-06-28, 02:27:04,VALID,917.82,VALID,0,VALID,94.2026,VALID,0,VALID,18.3993,VALID,360,VALID,0,
2012-06-28, 02:28:04,VALID,917.82,VALID,0,VALID,94.1797,VALID,0,VALID,18.4188,VALID,360,VALID,0,
2012-06-28, 02:29:04,VALID,917.779,VALID,0,VALID,94.2483,VALID,0,VALID,18.4188,VALID,360,VALID,0,
2012-06-28, 02:30:04,VALID,917.784,VALID,0,VALID,94.233,VALID,0,VALID,18.4188,VALID,360,VALID,0,
2012-06-28, 02:31:04,VALID,917.771,VALID,0,VALID,94.2788,VALID,0,VALID,18.4188,VALID,360,VALID,0,
2012-06-28, 02:32:04,VALID,917.753,VALID,0,VALID,94.3169,VALID,0,VALID,18.4188,VALID,360,VALID,0,
2012-06-28, 02:33:04,VALID,917.773,VALID,0,VALID,94.355,VALID,0,VALID,18.4188,VALID,360,VALID,0,
2012-06-28, 02:34:04,VALID,917.762,VALID,0,VALID,94.3931,VALID,0,VALID,18.4383,VALID,360,VALID,0,
2012-06-28, 02:35:04,VALID,917.781,VALID,0,VALID,94.4541,VALID,0,VALID,18.4383,VALID,360,VALID,0,
2012-06-28, 02:36:04,VALID,917.794,VALID,0,VALID,94.4236,VALID,0,VALID,18.4383,VALID,360,VALID,0,
2012-06-28, 02:37:04,VALID,917.777,VALID,0,VALID,94.538,VALID,0,VALID,18.4188,VALID,360,VALID,0,
2012-06-28, 02:38:04,VALID,917.783,VALID,0,VALID,94.6295,VALID,0,VALID,18.4383,VALID,360,VALID,0,
2012-06-28, 02:39:04,VALID,917.777,VALID,0,VALID,94.7286,VALID,0,VALID,18.4773,VALID,360,VALID,0,
2012-06-28, 02:40:04,VALID,917.771,VALID,0,VALID,94.7133,VALID,0,VALID,18.4968,VALID,360,VALID,0,
2012-06-28, 02:41:04,VALID,917.752,VALID,0,VALID,94.6447,VALID,0,VALID,18.5358,VALID,360,VALID,0,
2012-06-28, 02:42:04,VALID,917.748,VALID,0,VALID,94.6447,VALID,0,VALID,18.5358,VALID,25,VALID,0,
2012-06-28, 02:43:04,VALID,917.727,VALID,0,VALID,94.6295,VALID,0,VALID,18.5943,VALID,29,VALID,0,
2012-06-28, 02:44:04,VALID,917.726,VALID,0,VALID,94.5609,VALID,0,VALID,18.6333,VALID,26,VALID,0,
2012-06-28, 02:45:04,VALID,917.715,VALID,0,VALID,94.3703,VALID,0,VALID,18.6528,VALID,26,VALID,0,
2012-06-28, 02:46:04,VALID,917.718,VALID,0,VALID,94.2559,VALID,0,VALID,18.6918,VALID,35,VALID,0,
2012-06-28, 02:47:04,VALID,917.678,VALID,0,VALID,94.1721,VALID,0,VALID,18.7113,VALID,24,VALID,0,
2012-06-28, 02:48:04,VALID,917.699,VALID,0,VALID,94.0348,VALID,0,VALID,18.7503,VALID,18,VALID,0,
2012-06-28, 02:49:04,VALID,917.68,VALID,0,VALID,93.9738,VALID,0,VALID,18.7697,VALID,21,VALID,0,
2012-06-28, 02:50:04,VALID,917.68,VALID,0,VALID,94.0272,VALID,0,VALID,18.7697,VALID,11,VALID,0,
2012-06-28, 02:51:04,VALID,917.641,VALID,0,VALID,93.9891,VALID,0,VALID,18.7892,VALID,12,VALID,0,
2012-06-28, 02:52:04,VALID,917.616,VALID,0,VALID,93.9662,VALID,0,VALID,18.8282,VALID,12,VALID,0,
2012-06-28, 02:53:04,VALID,917.645,VALID,0,VALID,93.9281,VALID,0,VALID,18.8282,VALID,11,VALID,0,
2012-06-28, 02:54:04,VALID,917.674,VALID,0,VALID,94.0653,VALID,0,VALID,18.8477,VALID,12,VALID,0,
2012-06-28, 02:55:04,VALID,917.673,VALID,0,VALID,94.1949,VALID,0,VALID,18.8282,VALID,12,VALID,0,
2012-06-28, 02:56:04,VALID,917.678,VALID,0,VALID,94.3093,VALID,0,VALID,18.8087,VALID,11,VALID,0,
2012-06-28, 02:57:04,VALID,917.681,VALID,0,VALID,94.4694,VALID,0,VALID,18.7892,VALID,341,VALID,0,
2012-06-28, 02:58:04,VALID,917.689,VALID,0,VALID,94.5837,VALID,0,VALID,18.8087,VALID,348,VALID,0,
2012-06-28, 02:59:04,VALID,917.656,VALID,0,VALID,94.6371,VALID,0,VALID,18.7892,VALID,348,VALID,0,
2012-06-28, 03:00:04,VALID,917.629,VALID,0,VALID,94.7057,VALID,0,VALID,18.7892,VALID,348,VALID,0,
2012-06-28, 03:01:04,VALID,917.638,VALID,0,VALID,94.7896,VALID,0,VALID,18.7697,VALID,348,VALID,0,
2012-06-28, 03:02:04,VALID,917.639,VALID,0,VALID,94.8124,VALID,0,VALID,18.7892,VALID,348,VALID,0,
2012-06-28, 03:03:04,VALID,917.635,VALID,0,VALID,94.9192,VALID,0,VALID,18.7503,VALID,348,VALID,0,
2012-06-28, 03:04:04,VALID,917.637,VALID,0,VALID,94.9878,VALID,0,VALID,18.7892,VALID,348,VALID,0,
2012-06-28, 03:05:04,VALID,917.641,VALID,0,VALID,94.9954,VALID,0,VALID,18.7892,VALID,333,VALID,0,
2012-06-28, 03:06:04,VALID,917.604,VALID,0,VALID,94.8658,VALID,0,VALID,18.7892,VALID,333,VALID,0,
2012-06-28, 03:07:04,VALID,917.589,VALID,0,VALID,94.7133,VALID,0,VALID,18.6918,VALID,333,VALID,0,
2012-06-28, 03:08:04,VALID,917.56,VALID,0,VALID,94.7286,VALID,0,VALID,18.6528,VALID,333,VALID,0,
2012-06-28, 03:09:04,VALID,917.552,VALID,0,VALID,94.7972,VALID,0,VALID,18.6138,VALID,333,VALID,0,
2012-06-28, 03:10:04,VALID,917.522,VALID,0,VALID,94.9344,VALID,0,VALID,18.5748,VALID,333,VALID,0,
2012-06-28, 03:11:04,VALID,917.524,VALID,0,VALID,95.0945,VALID,0,VALID,18.5553,VALID,333,VALID,0,
2012-06-28, 03:12:04,VALID,917.453,VALID,0,VALID,95.2622,VALID,0,VALID,18.5553,VALID,333,VALID,0,
2012-06-28, 03:13:04,VALID,917.423,VALID,0,VALID,95.3613,VALID,0,VALID,18.5149,VALID,333,VALID,0,
2012-06-28, 03:14:04,VALID,917.445,VALID,0,VALID,95.3994,VALID,0,VALID,18.5163,VALID,333,VALID,0,
2012-06-28, 03:15:04,VALID,917.422,VALID,0,VALID,95.4757,VALID,0,VALID,18.5358,VALID,333,VALID,0,
2012-06-28, 03:16:04,VALID,917.431,VALID,0,VALID,95.5748,VALID,0,VALID,18.5748,VALID,2,VALID,0,
2012-06-28, 03:17:04,VALID,917.413,VALID,0,VALID,95.4452,VALID,0,VALID,18.5553,VALID,2,VALID,0,
2012-06-28, 03:18:04,VALID,917.42,VALID,0,VALID,95.6662,VALID,0,VALID,18.5943,VALID,2,VALID,0,
2012-06-28, 03:19:04,VALID,917.442,VALID,0,VALID,95.6739,VALID,0,VALID,18.6138,VALID,2,VALID,0,
2012-06-28, 03:20:04,VALID,917.454,VALID,0,VALID,95.7272,VALID,0,VALID,18.6513,VALID,2,VALID,0,
2012-06-28, 03:21:04,VALID,917.443,VALID,0,VALID,95.7501,VALID,0,VALID,18.7308,VALID,2,VALID,0,
2012-06-28, 03:22:04,VALID,917.467,VALID,0,VALID,95.6357,VALID,0,VALID,18.7697,VALID,2,VALID,0,
2012-06-28, 03:23:04,VALID,917.462,VALID,0,VALID,95.5367,VALID,0,VALID,18.8282,VALID,2,VALID,0,
2012-06-28, 03:24:04,VALID,917.467,VALID,0,VALID,95.4909,VALID,0,VALID,18.8477,VALID,2,VALID,0,
2012-06-28, 03:25:04,VALID,917.476,VALID,0,VALID,95.4223,VALID,0,VALID,18.8672,VALID,23,VALID,0,
2012-06-28, 03:26:04,VALID,917.482,VALID,0,VALID,95.2546,VALID,0,VALID,18.8282,VALID,24,VALID,0,
2012-06-28, 03:27:04,VALID,917.487,VALID,0,VALID,95.2546,VALID,0,VALID,18.8492,VALID,24,VALID,0,
2012-06-28, 03:28:04,VALID,917.489,VALID,0,VALID,95.2546,VALID,0,VALID,18.8087,VALID,24,VALID,0,
2012-06-28, 03:29:04,VALID,917.493,VALID,0,VALID,95.3689,VALID,0,VALID,18.8102,VALID,24,VALID,0,
2012-06-28, 03:30:04,VALID,917.482,VALID,0,VALID,95.4452,VALID,0,VALID,18.8087,VALID,24,VALID,0,
2012-06-28, 03:31:04,VALID,917.448,VALID,0,VALID,95.4985,VALID,0,VALID,18.8087,VALID,24,VALID,0,
2012-06-28, 03:32:04,VALID,917.455,VALID,0,VALID,95.5367,VALID,0,VALID,18.8282,VALID,24,VALID,0,
2012-06-28, 03:33:04,VALID,917.429,VALID,0,VALID,95.59,VALID,0,VALID,18.8492,VALID,24,VALID,0,
2012-06-28, 03:34:04,VALID,917.424,VALID,0,VALID,95.5976,VALID,0,VALID,18.8268,VALID,24,VALID,0,
2012-06-28, 03:35:04,VALID,917.414,VALID,0,VALID,95.6129,VALID,0,VALID,18.8282,VALID,24,VALID,0,
2012-06-28, 03:36:04,VALID,917.466,VALID,0,VALID,95.6891,VALID,0,VALID,18.8477,VALID,24,VALID,0,
2012-06-28, 03:37:04,VALID,917.464,VALID,0,VALID,95.712,VALID,0,VALID,18.8477,VALID,24,VALID,0,
2012-06-28, 03:38:04,VALID,917.486,VALID,0,VALID,95.6891,VALID,0,VALID,18.8477,VALID,24,VALID,0,
2012-06-28, 03:39:04,VALID,917.498,VALID,0,VALID,95.7196,VALID,0,VALID,18.8477,VALID,24,VALID,0,
2012-06-28, 03:40:04,VALID,917.527,VALID,0,VALID,95.8035,VALID,0,VALID,18.8477,VALID,24,VALID,0,
2012-06-28, 03:41:04,VALID,917.511,VALID,0,VALID,95.8492,VALID,0,VALID,18.8672,VALID,24,VALID,0,
2012-06-28, 03:42:04,VALID,917.501,VALID,0,VALID,95.9254,VALID,0,VALID,18.9062,VALID,24,VALID,0,
2012-06-28, 03:43:04,VALID,917.473,VALID,0,VALID,95.9026,VALID,0,VALID,18.9062,VALID,24,VALID,0,
2012-06-28, 03:44:04,VALID,917.444,VALID,0,VALID,95.9178,VALID,0,VALID,18.9048,VALID,24,VALID,0,
2012-06-28, 03:45:04,VALID,917.408,VALID,0,VALID,95.9712,VALID,0,VALID,18.9467,VALID,19,VALID,0,
2012-06-28, 03:46:04,VALID,917.368,VALID,0,VALID,95.9864,VALID,0,VALID,18.9452,VALID,8,VALID,0,
2012-06-28, 03:47:04,VALID,917.394,VALID,0,VALID,96.0093,VALID,0,VALID,18.9842,VALID,8,VALID,0,
2012-06-28, 03:48:04,VALID,917.383,VALID,0,VALID,95.9864,VALID,0,VALID,19.0037,VALID,8,VALID,0,
2012-06-28, 03:49:04,VALID,917.323,VALID,0,VALID,96.0017,VALID,0,VALID,19.0232,VALID,8,VALID,0,
2012-06-28, 03:50:04,VALID,917.331,VALID,0,VALID,96.0017,VALID,0,VALID,19.0637,VALID,8,VALID,0,
2012-06-28, 03:51:04,VALID,917.308,VALID,0,VALID,95.9636,VALID,0,VALID,19.0622,VALID,8,VALID,0,
2012-06-28, 03:52:04,VALID,917.332,VALID,0,VALID,95.9254,VALID,0,VALID,19.0622,VALID,4,VALID,0,
2012-06-28, 03:53:04,VALID,917.325,VALID,0,VALID,95.9102,VALID,0,VALID,19.0622,VALID,4,VALID,0,
2012-06-28, 03:54:04,VALID,917.321,VALID,0,VALID,95.9331,VALID,0,VALID,19.0817,VALID,4,VALID,0,
2012-06-28, 03:55:04,VALID,917.329,VALID,0,VALID,95.895,VALID,0,VALID,19.0817,VALID,4,VALID,0,
2012-06-28, 03:56:04,VALID,917.316,VALID,0,VALID,95.8645,VALID,0,VALID,19.0817,VALID,4,VALID,0,
2012-06-28, 03:57:04,VALID,917.346,VALID,0,VALID,95.8568,VALID,0,VALID,19.0817,VALID,4,VALID,0,
2012-06-28, 03:58:04,VALID,917.362,VALID,0,VALID,95.7501,VALID,0,VALID,19.1027,VALID,4,VALID,0,
2012-06-28, 03:59:04,VALID,917.398,VALID,0,VALID,95.8492,VALID,0,VALID,19.1012,VALID,4,VALID,0,
2012-06-28, 04:00:04,VALID,917.411,VALID,0,VALID,95.8187,VALID,0,VALID,19.1207,VALID,4,VALID,0,